COSMOS 2425 (GLONASS) 1 29670U 06062A 24109.36672537 -.00000038 00000-0 00000-0 0 9995 2 29670 64.6980 220.6116 0021482 354.1335 32.5153 2.13116902134752 COSMOS 2426 (GLONASS) 1 29671U 06062B 24107.43140236 -.00000028 00000-0 00000-0 0 9997 2 29671 64.7058 220.8841 0021406 177.8350 179.9252 2.12963292134689 COSMOS 2433 (GLONASS) 1 32275U 07052A 24109.15386200 -.00000064 00000-0 00000-0 0 9995 2 32275 65.9547 342.3859 0001146 292.0210 68.0193 2.13104145128222 COSMOS 2432 (GLONASS) 1 32276U 07052B 24108.45887677 -.00000068 00000-0 00000-0 0 9996 2 32276 65.9695 342.5218 0010456 337.3325 155.9711 2.13103371128235 COSMOS 2434 (GLONASS) 1 32393U 07065A 24109.70048400 -.00000038 00000-0 00000+0 0 9998 2 32393 64.3221 218.5895 0002656 80.1000 231.3234 2.13103208126979 COSMOS 2436 (GLONASS) 1 32395U 07065C 24109.07247476 -.00000038 00000-0 00000-0 0 9995 2 32395 64.3307 218.6748 0016233 2.1825 322.7010 2.13102969126889 COSMOS 2456 (GLONASS) 1 36111U 09070A 24108.39054127 .00000062 00000-0 00000-0 0 9992 2 36111 64.5871 98.0421 0006375 305.4094 236.7407 2.13099152111571 COSMOS 2457 (GLONASS) 1 36112U 09070B 24109.37292014 .00000064 00000-0 00000-0 0 9993 2 36112 64.5720 97.8686 0003000 201.9361 146.4277 2.13101320111599 COSMOS 2458 (GLONASS) 1 36113U 09070C 24108.31028269 .00000061 00000-0 00000-0 0 9993 2 36113 64.5767 97.9452 0006613 303.7854 233.5836 2.13082566111605 COSMOS 2459 (GLONASS) 1 36400U 10007A 24108.16761365 -.00000067 00000-0 00000-0 0 9995 2 36400 65.8317 341.1940 0026646 347.8819 235.0434 2.13116890109968 COSMOS 2461 (GLONASS) 1 36401U 10007B 24108.16368707 -.00000067 00000-0 00000-0 0 9999 2 36401 65.8269 341.1557 0020753 3.4221 176.3374 2.13107117109966 COSMOS 2460 (GLONASS) 1 36402U 10007C 24109.39953347 -.00000061 00000-0 00000-0 0 9990 2 36402 65.8122 341.0541 0002421 39.1333 320.8029 2.13106361109894 COSMOS 2464 (GLONASS) 1 37139U 10041C 24109.42091226 -.00000038 00000-0 00000-0 0 9993 2 37139 63.9216 217.3428 0031876 10.8568 298.4239 2.13099818106052 COSMOS 2471 (GLONASS) 1 37372U 11009A 24109.41113988 -.00000061 00000-0 00000-0 0 9992 2 37372 65.8000 341.0344 0009296 331.9275 190.5202 2.12911611102262 COSMOS 2474 (GLONASS) 1 37829U 11055A 24109.25937655 .00000068 00000-0 00000-0 0 9993 2 37829 64.8822 99.6172 0011361 247.4785 105.6620 2.13101614 97616 COSMOS 2476 (GLONASS) 1 37867U 11064A 24109.91397951 .00000068 00000-0 00000+0 0 9996 2 37867 64.8626 99.6028 0024283 241.9322 300.2456 2.13101751 96995 COSMOS 2477 (GLONASS) 1 37868U 11064B 24108.22813406 .00000064 00000-0 00000-0 0 9995 2 37868 64.8690 99.7321 0021516 243.4793 263.1185 2.13101585 96901 COSMOS 2475 (GLONASS) 1 37869U 11064C 24109.69139691 .00000068 00000-0 00000-0 0 9999 2 37869 64.8767 99.6966 0026772 256.7911 251.0495 2.13101910 96945 COSMOS 2485 (GLONASS) 1 39155U 13019A 24109.14912113 .00000069 00000-0 00000+0 0 9999 2 39155 65.0204 100.2005 0024485 238.0830 121.6906 2.13101886 85443 COSMOS 2492 (GLONASS) 1 39620U 14012A 24109.10464599 -.00000062 00000-0 00000-0 0 9991 2 39620 65.6944 340.6498 0013148 331.0106 28.9690 2.13103283 78407 COSMOS 2500 (GLONASS) 1 40001U 14032A 24108.34633360 -.00000065 00000-0 00000-0 0 9990 2 40001 65.6323 340.4852 0004414 193.8749 166.1635 2.13106072 76601 COSMOS 2501 (GLONASS) 1 40315U 14075A 24109.06802997 -.00000039 00000-0 00000+0 0 9999 2 40315 63.6239 217.7658 0019582 207.0191 152.8779 2.13101491 73017 COSMOS 2514 (GLONASS) 1 41330U 16008A 24109.05024179 -.00000061 00000-0 00000-0 0 9998 2 41330 65.4273 339.9860 0008160 208.1028 151.9050 2.13102731 63789 COSMOS 2516 (GLONASS) 1 41554U 16032A 24107.75104929 -.00000033 00000-0 00000-0 0 9999 2 41554 63.8508 218.2757 0015441 211.6983 148.2083 2.13106522 61362 COSMOS 2522 (GLONASS) 1 42939U 17055A 24109.36010198 -.00000038 00000-0 00000-0 0 9991 2 42939 64.0848 218.8118 0007681 234.9899 124.9352 2.13101885 51140